Consulta los datos en tiempo real de la estación meteorológica de Calldetenes
| Hora UTC | 19:25 |
|---|---|
| Temperatura | 23.8 ºC |
| Suelo 15 cm | 23.9 ºC |
| Humedad | 66.3 % |
| Presión | 1020.7 hPa |
| Pluja | 0.0 mm |
| Velocidad viento | 6.5 km/h |
| Dirección viento | S |
| Radiación solar | 0.1 W/m² |
| Temperatura (ºC) | Humedad (%) | Presión (hPa) | Velocidad viento (km/h) | Precipitación (mm) | Radiación solar (W/m²) | ||||||||||||||
|---|---|---|---|---|---|---|---|---|---|---|---|---|---|---|---|---|---|---|---|
| Hora UTC | Aire | Suelo 15 cm | Humedad | Presión | Vel. | Dir. | Vel. Max | Dir. | Intent. máx 5 min. | Rad. Sol. | |||||||||
| 00:05 | 15.6 | 15.7 | 71.8 | 1019.3 | 4.6 | ESE | 4.6 | ESE | 0.0 | 0.1 | |||||||||
| 00:10 | 15.7 | 15.7 | 71.2 | 1019.3 | 1.4 | SSE | 2.1 | SE | 0.0 | 0.1 | |||||||||
| 00:15 | 15.7 | 15.7 | 71.9 | 1019.3 | 0.5 | S | 2.1 | S | 0.0 | 0.1 | |||||||||
| 00:20 | 15.7 | 15.6 | 72.9 | 1019.3 | 2.9 | S | 4.2 | S | 0.0 | 0.1 | |||||||||
| 00:25 | 15.8 | 15.6 | 72.2 | 1019.3 | 0.9 | SSE | 3.5 | SSE | 0.0 | 0.1 | |||||||||
| 00:30 | 15.6 | 15.5 | 72.7 | 1019.3 | 2.2 | SSE | 3.9 | SE | 0.0 | 0.1 | |||||||||
| 00:35 | 15.8 | 15.6 | 72.5 | 1019.3 | 4.0 | SE | 5.3 | ESE | 0.0 | 0.1 | |||||||||
| 00:40 | 15.9 | 15.6 | 71.1 | 1019.3 | 2.3 | SE | 3.5 | ESE | 0.0 | 0.1 | |||||||||
| 00:45 | 15.8 | 15.6 | 71.2 | 1019.3 | 1.4 | SE | 3.9 | ESE | 0.0 | 0.1 | |||||||||
| 00:50 | 15.4 | 15.5 | 72.7 | 1019.3 | 0.6 | SSE | 2.8 | SE | 0.0 | 0.1 | |||||||||
| 00:55 | 15.2 | 15.3 | 74.2 | 1019.3 | 3.7 | ESE | 6.7 | ESE | 0.0 | 0.1 | |||||||||
| 01:00 | 15.1 | 15.1 | 74.7 | 1019.3 | 5.3 | ESE | 7.4 | ESE | 0.0 | 0.1 | |||||||||
| 01:05 | 15.6 | 15.1 | 74.1 | 1019.3 | 6.5 | ESE | 7.4 | ESE | 0.0 | 0.1 | |||||||||
| 01:10 | 16.2 | 15.4 | 71.1 | 1019.3 | 4.1 | SE | 7.1 | ESE | 0.0 | 0.1 | |||||||||
| 01:15 | 15.7 | 15.6 | 72.5 | 1019.4 | 4.8 | SE | 7.8 | ESE | 0.0 | 0.1 | |||||||||
| 01:20 | 15.4 | 15.4 | 74.2 | 1019.4 | 6.9 | ESE | 8.5 | ESE | 0.0 | 0.1 | |||||||||
| 01:25 | 15.1 | 15.2 | 75.1 | 1019.4 | 7.0 | ESE | 8.8 | ESE | 0.0 | 0.1 | |||||||||
| 01:30 | 14.9 | 15.0 | 76.2 | 1019.4 | 5.4 | ESE | 7.8 | SE | 0.0 | 0.1 | |||||||||
| 01:35 | 14.8 | 14.9 | 77.1 | 1019.4 | 4.4 | ESE | 6.4 | ESE | 0.0 | 0.1 | |||||||||
| 01:40 | 14.9 | 14.8 | 77.0 | 1019.4 | 4.0 | ESE | 6.4 | ESE | 0.0 | 0.1 | |||||||||
| 01:45 | 15.3 | 15.0 | 76.2 | 1019.4 | 2.5 | SE | 5.6 | SE | 0.0 | 0.1 | |||||||||
| 01:50 | 15.5 | 15.2 | 75.1 | 1019.4 | 2.7 | SE | 4.6 | ESE | 0.0 | 0.1 | |||||||||
| 01:55 | 15.3 | 15.2 | 75.6 | 1019.4 | 1.5 | ESE | 6.0 | ESE | 0.0 | 0.1 | |||||||||
| 02:00 | 15.2 | 15.1 | 76.8 | 1019.4 | 3.0 | SE | 6.0 | ESE | 0.0 | 0.1 | |||||||||
| 02:05 | 15.2 | 15.0 | 76.7 | 1019.4 | 0.8 | SSW | 2.8 | SE | 0.0 | 0.1 | |||||||||
| 02:10 | 15.2 | 15.0 | 77.3 | 1019.4 | 2.8 | NW | 5.3 | NW | 0.0 | 0.1 | |||||||||
| 02:15 | 15.3 | 15.1 | 77.2 | 1019.4 | 3.4 | WNW | 5.3 | NW | 0.0 | 0.1 | |||||||||
| 02:20 | 15.8 | 15.2 | 75.0 | 1019.4 | 3.4 | SSW | 6.7 | SSW | 0.0 | 0.1 | |||||||||
| 02:25 | 16.0 | 15.5 | 72.2 | 1019.4 | 1.1 | S | 4.2 | SSW | 0.0 | 0.1 | |||||||||
| 02:30 | 15.7 | 15.6 | 73.0 | 1019.4 | 1.3 | S | 3.2 | SSE | 0.0 | 0.1 | |||||||||
| 02:35 | 15.5 | 15.4 | 73.3 | 1019.4 | 1.6 | SSE | 3.9 | S | 0.0 | 0.1 | |||||||||
| 02:40 | 15.1 | 15.1 | 75.2 | 1019.4 | 2.1 | SE | 7.1 | ESE | 0.0 | 0.1 | |||||||||
| 02:45 | 14.6 | 14.7 | 78.1 | 1019.5 | 5.2 | ESE | 6.4 | ESE | 0.0 | 0.1 | |||||||||
| 02:50 | 14.5 | 14.5 | 79.1 | 1019.5 | 5.3 | ESE | 6.4 | ESE | 0.0 | 0.1 | |||||||||
| 02:55 | 14.4 | 14.3 | 79.5 | 1019.5 | 3.9 | ESE | 5.6 | ESE | 0.0 | 0.1 | |||||||||
| 03:00 | 14.0 | 14.1 | 80.7 | 1019.5 | 3.9 | ESE | 5.6 | ESE | 0.0 | 0.1 | |||||||||
| 03:05 | 14.1 | 13.9 | 81.6 | 1019.5 | 4.1 | SE | 5.6 | SE | 0.0 | 0.1 | |||||||||
| 03:10 | 13.9 | 13.8 | 81.0 | 1019.5 | 2.1 | ESE | 3.5 | ESE | 0.0 | 0.1 | |||||||||
| 03:15 | 13.7 | 13.7 | 82.6 | 1019.5 | 1.0 | ESE | 3.5 | ESE | 0.0 | 0.1 | |||||||||
| 03:20 | 13.7 | 13.7 | 82.8 | 1019.5 | 2.3 | ESE | 4.2 | ESE | 0.0 | 0.1 | |||||||||
| 03:25 | 13.6 | 13.6 | 82.3 | 1019.5 | 0.7 | ESE | 2.8 | ESE | 0.0 | 0.1 | |||||||||
| 03:30 | 13.6 | 13.5 | 83.6 | 1019.5 | 0.0 | NNE | 0.0 | ESE | 0.0 | 0.1 | |||||||||
| 03:35 | 13.7 | 13.5 | 83.2 | 1019.6 | 1.0 | SSE | 2.8 | SSE | 0.0 | 0.1 | |||||||||
| 03:40 | 13.6 | 13.5 | 83.0 | 1019.6 | 1.8 | S | 3.9 | SE | 0.0 | 0.1 | |||||||||
| 03:45 | 13.5 | 13.5 | 83.4 | 1019.6 | 2.7 | ESE | 5.3 | ESE | 0.0 | 0.1 | |||||||||
| 03:50 | 13.6 | 13.5 | 84.2 | 1019.6 | 3.5 | SE | 6.4 | SE | 0.0 | 0.1 | |||||||||
| 03:55 | 13.6 | 13.5 | 83.7 | 1019.6 | 0.5 | SE | 3.5 | SE | 0.0 | 0.1 | |||||||||
| 04:00 | 13.5 | 13.4 | 84.5 | 1019.6 | 0.0 | ESE | 1.1 | ESE | 0.0 | 0.1 | |||||||||
| 04:05 | 13.5 | 13.3 | 84.9 | 1019.6 | 0.0 | NNE | 0.0 | ESE | 0.0 | 0.1 | |||||||||
| 04:10 | 13.5 | 13.4 | 84.7 | 1019.6 | 1.7 | SSW | 3.5 | S | 0.0 | 0.1 | |||||||||
| 04:15 | 13.5 | 13.4 | 84.5 | 1019.6 | 1.0 | SSE | 3.2 | SSW | 0.0 | 0.1 | |||||||||
| 04:20 | 13.4 | 13.3 | 84.1 | 1019.6 | 0.0 | NNE | 0.0 | ESE | 0.0 | 0.1 | |||||||||
| 04:25 | 13.2 | 13.2 | 84.6 | 1019.6 | 2.1 | E | 3.2 | E | 0.0 | 0.1 | |||||||||
| 04:30 | 13.1 | 13.1 | 85.0 | 1019.6 | 1.4 | ESE | 2.5 | ESE | 0.0 | 0.1 | |||||||||
| 04:35 | 13.0 | 13.0 | 85.7 | 1019.6 | 2.5 | E | 3.9 | E | 0.0 | 0.1 | |||||||||
| 04:40 | 13.0 | 13.0 | 86.4 | 1019.6 | 3.6 | ESE | 4.9 | ESE | 0.0 | 0.0 | |||||||||
| 04:45 | 12.8 | 13.0 | 84.5 | 1019.6 | 3.5 | ESE | 4.9 | ESE | 0.0 | 0.1 | |||||||||
| 04:50 | 12.6 | 12.8 | 86.0 | 1019.6 | 2.9 | ESE | 4.2 | E | 0.0 | 0.1 | |||||||||
| 04:55 | 12.5 | 12.6 | 87.5 | 1019.6 | 2.9 | SE | 4.2 | SE | 0.0 | 0.2 | |||||||||
| 05:00 | 12.5 | 12.6 | 88.1 | 1019.6 | 1.0 | SSE | 3.5 | SSE | 0.0 | 0.4 | |||||||||
| 05:05 | 12.7 | 12.6 | 88.8 | 1019.7 | 0.6 | SE | 2.8 | SE | 0.0 | 0.8 | |||||||||
| 05:10 | 12.8 | 12.6 | 88.6 | 1019.7 | 0.0 | NNE | 0.0 | SSE | 0.0 | 1.5 | |||||||||
| 05:15 | 12.8 | 12.7 | 88.0 | 1019.7 | 0.9 | SSW | 2.5 | SSE | 0.0 | 2.6 | |||||||||
| 05:20 | 12.9 | 12.7 | 88.3 | 1019.7 | 2.1 | S | 4.2 | SSE | 0.0 | 4.3 | |||||||||
| 05:25 | 12.9 | 12.7 | 86.9 | 1019.8 | 1.4 | SSE | 3.5 | SSE | 0.0 | 6.1 | |||||||||
| 05:30 | 12.8 | 12.7 | 86.7 | 1019.8 | 0.2 | SSE | 1.8 | SSE | 0.0 | 8.1 | |||||||||
| 05:35 | 12.8 | 12.7 | 87.0 | 1019.9 | 0.0 | NNE | 0.0 | SSE | 0.0 | 10.1 | |||||||||
| 05:40 | 12.8 | 12.6 | 88.3 | 1019.9 | 0.1 | SSE | 1.4 | SSE | 0.0 | 12.3 | |||||||||
| 05:45 | 13.0 | 12.8 | 89.8 | 1020.0 | 0.8 | S | 3.5 | S | 0.0 | 14.2 | |||||||||
| 05:50 | 13.0 | 12.9 | 88.7 | 1020.0 | 2.2 | SSW | 3.2 | SSW | 0.0 | 16.0 | |||||||||
| 05:55 | 13.4 | 13.0 | 88.0 | 1020.1 | 3.3 | S | 5.3 | S | 0.0 | 17.7 | |||||||||
| 06:00 | 13.5 | 13.2 | 86.1 | 1020.1 | 1.0 | SE | 2.5 | SE | 0.0 | 19.8 | |||||||||
| 06:05 | 13.5 | 13.3 | 87.0 | 1020.1 | 0.7 | WSW | 3.9 | WSW | 0.0 | 21.9 | |||||||||
| 06:10 | 14.0 | 13.5 | 91.1 | 1020.1 | 3.4 | SW | 4.6 | WSW | 0.0 | 24.1 | |||||||||
| 06:15 | 14.4 | 13.7 | 85.5 | 1020.2 | 2.6 | SW | 3.9 | SW | 0.0 | 26.5 | |||||||||
| 06:20 | 14.9 | 13.8 | 81.9 | 1020.2 | 0.8 | SSW | 2.8 | SSW | 0.0 | 28.6 | |||||||||
| 06:25 | 14.9 | 13.8 | 82.0 | 1020.3 | 0.0 | NNE | 0.0 | E | 0.0 | 58.4 | |||||||||
| 06:30 | 14.9 | 13.7 | 82.8 | 1020.3 | 0.3 | E | 1.8 | E | 0.0 | 119.7 | |||||||||
| 06:35 | 15.0 | 13.6 | 82.9 | 1020.4 | 0.6 | SSE | 2.1 | SE | 0.0 | 144.7 | |||||||||
| 06:40 | 15.2 | 13.7 | 81.8 | 1020.4 | 1.5 | SE | 3.2 | ESE | 0.0 | 158.2 | |||||||||
| 06:45 | 15.7 | 13.8 | 77.5 | 1020.4 | 0.5 | SSE | 2.5 | S | 0.0 | 172.1 | |||||||||
| 06:50 | 16.1 | 14.1 | 75.9 | 1020.4 | 0.0 | NNE | 0.0 | SSE | 0.0 | 186.5 | |||||||||
| 06:55 | 16.3 | 14.3 | 75.6 | 1020.5 | 0.0 | S | 1.1 | S | 0.0 | 200.8 | |||||||||
| 07:00 | 16.6 | 14.4 | 73.8 | 1020.5 | 0.0 | SSW | 1.1 | SSW | 0.0 | 215.2 | |||||||||
| 07:05 | 16.7 | 14.6 | 73.1 | 1020.5 | 0.9 | S | 2.8 | SSE | 0.0 | 230.2 | |||||||||
| 07:10 | 16.8 | 14.7 | 73.7 | 1020.5 | 1.5 | WSW | 3.5 | WSW | 0.0 | 244.8 | |||||||||
| 07:15 | 16.9 | 14.8 | 73.5 | 1020.5 | 1.5 | WSW | 4.6 | WSW | 0.0 | 258.9 | |||||||||
| 07:20 | 17.0 | 14.9 | 73.2 | 1020.5 | 0.6 | SSW | 2.8 | SW | 0.0 | 273.9 | |||||||||
| 07:25 | 17.0 | 15.0 | 72.5 | 1020.5 | 0.4 | SSE | 2.1 | NE | 0.0 | 289.3 | |||||||||
| 07:30 | 17.2 | 15.1 | 72.5 | 1020.5 | 1.5 | NNE | 4.9 | N | 0.0 | 304.8 | |||||||||
| 07:35 | 17.5 | 15.4 | 70.5 | 1020.5 | 0.9 | ENE | 2.5 | ENE | 0.0 | 320.2 | |||||||||
| 07:40 | 17.7 | 15.6 | 71.2 | 1020.5 | 0.7 | NE | 2.5 | ENE | 0.0 | 335.6 | |||||||||
| 07:45 | 17.7 | 15.7 | 71.1 | 1020.6 | 0.8 | E | 3.2 | E | 0.0 | 351.0 | |||||||||
| 07:50 | 18.2 | 15.7 | 69.3 | 1020.6 | 1.0 | SSW | 3.2 | WSW | 0.0 | 366.4 | |||||||||
| 07:55 | 18.5 | 15.9 | 66.9 | 1020.6 | 0.5 | NW | 3.2 | NW | 0.0 | 380.7 | |||||||||
| 08:00 | 18.7 | 16.1 | 67.2 | 1020.6 | 2.6 | NNW | 4.6 | N | 0.0 | 394.9 | |||||||||
| 08:05 | 18.9 | 16.2 | 65.3 | 1020.7 | 0.5 | NW | 2.5 | WNW | 0.0 | 409.4 | |||||||||
| 08:10 | 19.0 | 16.3 | 65.7 | 1020.7 | 2.3 | N | 6.4 | N | 0.0 | 424.0 | |||||||||
| 08:15 | 19.3 | 16.5 | 65.3 | 1020.8 | 2.7 | NE | 5.6 | NE | 0.0 | 438.1 | |||||||||
| 08:20 | 19.5 | 16.7 | 65.2 | 1020.8 | 0.4 | ESE | 2.8 | ENE | 0.0 | 452.0 | |||||||||
| 08:25 | 19.6 | 16.9 | 65.2 | 1020.8 | 2.1 | NE | 5.3 | ENE | 0.0 | 465.5 | |||||||||
| 08:30 | 19.9 | 17.0 | 63.4 | 1020.8 | 0.4 | NNW | 2.8 | NNW | 0.0 | 479.0 | |||||||||
| 08:35 | 20.1 | 17.2 | 63.3 | 1020.9 | 1.9 | ENE | 5.3 | ENE | 0.0 | 493.1 | |||||||||
| 08:40 | 20.3 | 17.4 | 63.4 | 1020.9 | 2.5 | ENE | 4.2 | ESE | 0.0 | 505.7 | |||||||||
| 08:45 | 20.6 | 17.5 | 61.8 | 1020.9 | 0.7 | NE | 3.2 | ENE | 0.0 | 519.0 | |||||||||
| 08:50 | 20.9 | 17.7 | 60.7 | 1020.9 | 0.6 | SSE | 2.8 | SW | 0.0 | 531.7 | |||||||||
| 08:55 | 21.1 | 18.0 | 61.0 | 1021.0 | 1.6 | ENE | 3.2 | NE | 0.0 | 544.3 | |||||||||
| 09:00 | 21.4 | 18.2 | 58.7 | 1021.0 | 1.7 | NNE | 5.3 | NNE | 0.0 | 556.5 | |||||||||
| 09:05 | 21.7 | 18.5 | 57.5 | 1021.0 | 1.8 | ENE | 3.9 | E | 0.0 | 569.0 | |||||||||
| 09:10 | 22.0 | 18.7 | 54.1 | 1021.0 | 0.4 | SSW | 3.2 | SSW | 0.0 | 581.0 | |||||||||
| 09:15 | 22.3 | 19.0 | 55.0 | 1021.0 | 2.0 | SW | 6.7 | W | 0.0 | 592.0 | |||||||||
| 09:20 | 22.9 | 19.2 | 53.4 | 1021.0 | 2.7 | WSW | 5.3 | WSW | 0.0 | 603.3 | |||||||||
| 09:25 | 23.1 | 19.5 | 53.1 | 1021.0 | 2.4 | WNW | 4.6 | WNW | 0.0 | 614.2 | |||||||||
| 09:30 | 23.3 | 19.8 | 51.7 | 1021.0 | 0.7 | W | 3.5 | WNW | 0.0 | 625.6 | |||||||||
| 09:35 | 24.1 | 20.1 | 49.5 | 1020.9 | 1.9 | SW | 6.4 | SSW | 0.0 | 636.0 | |||||||||
| 09:40 | 25.7 | 20.6 | 45.7 | 1020.9 | 4.5 | SSE | 8.5 | ESE | 0.0 | 645.7 | |||||||||
| 09:45 | 26.6 | 21.4 | 43.8 | 1020.9 | 3.0 | ESE | 8.1 | ESE | 0.0 | 655.9 | |||||||||
| 09:50 | 27.0 | 22.4 | 44.1 | 1020.9 | 5.8 | NE | 10.9 | ENE | 0.0 | 667.0 | |||||||||
| 09:55 | 26.9 | 23.2 | 43.3 | 1020.8 | 6.5 | ENE | 13.4 | ENE | 0.0 | 674.8 | |||||||||
| 10:00 | 27.8 | 24.3 | 38.4 | 1020.8 | 5.6 | SSW | 19.4 | SSW | 0.0 | 685.9 | |||||||||
| 10:05 | 28.3 | 25.4 | 31.7 | 1020.7 | 13.3 | SSW | 21.2 | SSW | 0.0 | 697.9 | |||||||||
| 10:10 | 28.6 | 26.5 | 33.0 | 1020.7 | 14.2 | SSW | 26.5 | SSW | 0.0 | 704.5 | |||||||||
| 10:15 | 28.9 | 27.4 | 33.3 | 1020.7 | 12.5 | SSW | 20.5 | SSW | 0.0 | 712.4 | |||||||||
| 10:20 | 28.8 | 28.1 | 34.9 | 1020.7 | 10.8 | SSW | 20.1 | SSW | 0.0 | 719.3 | |||||||||
| 10:25 | 29.2 | 28.7 | 35.4 | 1020.7 | 11.0 | SSW | 18.7 | SW | 0.0 | 726.4 | |||||||||
| 10:30 | 29.1 | 29.2 | 36.4 | 1020.7 | 11.0 | SSW | 18.7 | S | 0.0 | 731.3 | |||||||||
| 10:35 | 29.0 | 29.5 | 37.8 | 1020.7 | 10.8 | SSW | 24.0 | SSW | 0.0 | 737.5 | |||||||||
| 10:40 | 28.9 | 29.8 | 35.6 | 1020.7 | 8.8 | SW | 18.0 | SSW | 0.0 | 744.8 | |||||||||
| 10:45 | 29.6 | 30.3 | 34.8 | 1020.7 | 9.9 | SSW | 20.1 | SSW | 0.0 | 749.0 | |||||||||
| 10:50 | 29.3 | 30.5 | 36.8 | 1020.7 | 10.9 | S | 17.3 | SSW | 0.0 | 754.5 | |||||||||
| 10:55 | 29.5 | 30.9 | 35.1 | 1020.7 | 11.9 | S | 21.9 | S | 0.0 | 761.2 | |||||||||
| 11:00 | 29.4 | 31.5 | 35.5 | 1020.7 | 10.8 | SSW | 18.4 | SSW | 0.0 | 766.6 | |||||||||
| 11:05 | 29.7 | 32.3 | 38.3 | 1020.5 | 7.1 | SW | 15.9 | S | 0.0 | 768.0 | |||||||||
| 11:10 | 30.2 | 33.4 | 37.8 | 1020.5 | 6.7 | S | 12.7 | SSW | 0.0 | 771.0 | |||||||||
| 11:15 | 29.9 | 34.3 | 40.0 | 1020.4 | 11.7 | SSW | 21.9 | SSW | 0.0 | 774.2 | |||||||||
| 11:20 | 29.3 | 34.4 | 41.3 | 1020.4 | 4.9 | SSE | 10.2 | S | 0.0 | 776.6 | |||||||||
| 11:25 | 29.2 | 34.9 | 42.3 | 1020.4 | 3.4 | NNW | 10.9 | WNW | 0.0 | 776.4 | |||||||||
| 11:30 | 29.7 | 35.6 | 41.6 | 1020.4 | 5.1 | ESE | 10.2 | SSE | 0.0 | 779.4 | |||||||||
| 11:35 | 30.1 | 36.0 | 41.0 | 1020.3 | 9.5 | SSW | 21.5 | SW | 0.0 | 781.0 | |||||||||
| 11:40 | 29.9 | 35.9 | 41.4 | 1020.3 | 8.1 | SW | 25.1 | SSW | 0.0 | 782.4 | |||||||||
| 11:45 | 30.3 | 36.5 | 41.0 | 1020.3 | 5.3 | S | 14.1 | S | 0.0 | 784.4 | |||||||||
| 11:50 | 30.8 | 37.2 | 40.9 | 1020.3 | 10.7 | SW | 19.8 | WSW | 0.0 | 787.7 | |||||||||
| 11:55 | 30.6 | 37.5 | 40.6 | 1020.2 | 14.9 | S | 25.8 | SSE | 0.0 | 789.7 | |||||||||
| 12:00 | 30.4 | 37.4 | 40.7 | 1020.2 | 9.3 | SSE | 21.2 | S | 0.0 | 789.8 | |||||||||
| 12:05 | 29.9 | 37.0 | 41.5 | 1020.1 | 11.8 | SSE | 22.9 | SSE | 0.0 | 790.0 | |||||||||
| 12:10 | 30.4 | 36.5 | 41.8 | 1020.1 | 10.1 | SE | 20.5 | S | 0.0 | 788.2 | |||||||||
| 12:15 | 30.9 | 36.8 | 40.8 | 1019.9 | 10.6 | SSE | 29.3 | SSE | 0.0 | 785.0 | |||||||||
| 12:20 | 30.8 | 37.2 | 40.6 | 1019.9 | 8.6 | SSE | 15.9 | S | 0.0 | 784.6 | |||||||||
| 12:25 | 31.2 | 37.7 | 40.2 | 1019.8 | 10.4 | SSE | 21.2 | SE | 0.0 | 781.0 | |||||||||
| 12:30 | 30.8 | 37.7 | 40.5 | 1019.8 | 15.0 | S | 27.2 | SSE | 0.0 | 781.9 | |||||||||
| 12:35 | 30.9 | 37.5 | 40.9 | 1019.7 | 12.0 | S | 28.2 | S | 0.0 | 778.7 | |||||||||
| 12:40 | 31.0 | 37.4 | 40.8 | 1019.7 | 13.6 | SSW | 22.6 | SSW | 0.0 | 786.1 | |||||||||
| 12:45 | 31.2 | 37.5 | 40.5 | 1019.7 | 12.3 | S | 27.5 | S | 0.0 | 780.5 | |||||||||
| 12:50 | 31.3 | 37.3 | 40.6 | 1019.7 | 9.9 | S | 21.2 | S | 0.0 | 787.6 | |||||||||
| 12:55 | 31.8 | 37.6 | 39.7 | 1019.6 | 12.2 | SSW | 21.9 | SSW | 0.0 | 778.0 | |||||||||
| 13:00 | 31.4 | 37.9 | 40.0 | 1019.6 | 15.3 | SSW | 30.3 | SW | 0.0 | 765.3 | |||||||||
| 13:05 | 31.5 | 37.6 | 40.0 | 1019.5 | 12.8 | S | 25.1 | S | 0.0 | 758.4 | |||||||||
| 13:10 | 31.4 | 37.4 | 40.6 | 1019.5 | 12.5 | S | 27.2 | S | 0.0 | 757.5 | |||||||||
| 13:15 | 31.4 | 36.7 | 40.6 | 1019.4 | 15.0 | S | 25.8 | SSW | 0.0 | 754.7 | |||||||||
| 13:20 | 31.6 | 35.5 | 40.4 | 1019.4 | 12.4 | SSW | 21.2 | SSW | 0.0 | 750.5 | |||||||||
| 13:25 | 31.9 | 34.6 | 39.9 | 1019.4 | 11.7 | SSW | 18.4 | S | 0.0 | 747.4 | |||||||||
| 13:30 | 31.9 | 33.9 | 39.8 | 1019.4 | 12.2 | S | 20.5 | SSW | 0.0 | 251.5 | |||||||||
| 13:35 | 31.7 | 33.2 | 40.6 | 1019.3 | 11.2 | SSW | 24.3 | SSW | 0.0 | 97.1 | |||||||||
| 13:40 | 31.5 | 32.6 | 40.8 | 1019.3 | 10.5 | S | 22.2 | S | 0.0 | 86.3 | |||||||||
| 13:45 | 31.8 | 32.1 | 40.9 | 1019.2 | 13.8 | S | 25.1 | S | 0.0 | 78.2 | |||||||||
| 13:50 | 31.7 | 31.8 | 41.2 | 1019.2 | 13.7 | S | 21.9 | S | 0.0 | 100.6 | |||||||||
| 13:55 | 31.8 | 31.6 | 41.3 | 1019.2 | 13.5 | SSW | 26.1 | SSW | 0.0 | 638.0 | |||||||||
| 14:00 | 32.1 | 31.5 | 41.4 | 1019.2 | 10.8 | S | 18.4 | SSE | 0.0 | 681.5 | |||||||||
| 14:05 | 32.3 | 31.4 | 40.9 | 1019.2 | 11.9 | SSW | 23.6 | S | 0.0 | 671.9 | |||||||||
| 14:10 | 31.8 | 31.3 | 41.4 | 1019.2 | 12.0 | SSW | 23.3 | S | 0.0 | 665.3 | |||||||||
| 14:15 | 31.8 | 31.2 | 42.0 | 1019.2 | 14.4 | S | 26.8 | SSE | 0.0 | 586.0 | |||||||||
| 14:20 | 31.5 | 31.1 | 42.7 | 1019.2 | 15.5 | SSW | 28.2 | SW | 0.0 | 617.3 | |||||||||
| 14:25 | 31.4 | 30.9 | 43.2 | 1019.1 | 16.5 | SSW | 26.1 | SSW | 0.0 | 598.3 | |||||||||
| 14:30 | 31.4 | 30.9 | 43.3 | 1019.1 | 15.8 | SSW | 25.8 | SSW | 0.0 | 596.1 | |||||||||
| 14:35 | 31.3 | 30.8 | 44.2 | 1019.1 | 12.1 | S | 26.8 | SSW | 0.0 | 434.3 | |||||||||
| 14:40 | 31.0 | 30.7 | 45.2 | 1019.1 | 17.2 | S | 24.7 | S | 0.0 | 302.8 | |||||||||
| 14:45 | 30.7 | 30.4 | 46.1 | 1019.1 | 14.0 | S | 25.8 | SSW | 0.0 | 336.0 | |||||||||
| 14:50 | 31.2 | 30.2 | 46.3 | 1019.1 | 20.0 | S | 34.2 | SSW | 0.0 | 470.3 | |||||||||
| 14:55 | 30.5 | 30.2 | 48.5 | 1019.0 | 23.8 | SSW | 37.0 | S | 0.0 | 480.3 | |||||||||
| 15:00 | 30.2 | 30.1 | 50.2 | 1019.0 | 21.9 | S | 35.3 | SSW | 0.0 | 553.2 | |||||||||
| 15:05 | 30.0 | 29.9 | 50.8 | 1019.1 | 22.4 | S | 33.5 | SSW | 0.0 | 546.6 | |||||||||
| 15:10 | 30.1 | 29.8 | 51.4 | 1019.1 | 20.3 | S | 31.4 | S | 0.0 | 534.0 | |||||||||
| 15:15 | 30.0 | 29.8 | 52.0 | 1019.1 | 23.3 | S | 37.4 | SSW | 0.0 | 518.5 | |||||||||
| 15:20 | 29.9 | 29.7 | 53.2 | 1019.1 | 22.7 | S | 40.6 | S | 0.0 | 507.9 | |||||||||
| 15:25 | 30.1 | 29.7 | 53.0 | 1019.2 | 18.4 | SSW | 32.5 | SSW | 0.0 | 492.9 | |||||||||
| 15:30 | 29.8 | 29.7 | 54.1 | 1019.2 | 20.3 | SSW | 33.9 | S | 0.0 | 464.8 | |||||||||
| 15:35 | 29.6 | 29.6 | 54.7 | 1019.2 | 18.9 | SSW | 28.9 | S | 0.0 | 464.0 | |||||||||
| 15:40 | 29.4 | 29.5 | 55.9 | 1019.2 | 23.7 | SSW | 36.0 | SSW | 0.0 | 455.5 | |||||||||
| 15:45 | 29.2 | 29.4 | 56.6 | 1019.2 | 24.8 | SSW | 37.8 | SSW | 0.0 | 450.6 | |||||||||
| 15:50 | 28.7 | 29.2 | 57.7 | 1019.2 | 21.9 | SSW | 36.0 | SSW | 0.0 | 434.7 | |||||||||
| 15:55 | 29.0 | 29.0 | 57.3 | 1019.2 | 19.7 | S | 34.2 | SSW | 0.0 | 413.3 | |||||||||
| 16:00 | 28.7 | 29.0 | 58.1 | 1019.2 | 25.1 | SSW | 39.9 | S | 0.0 | 401.8 | |||||||||
| 16:05 | 28.2 | 28.7 | 60.2 | 1019.2 | 24.3 | S | 40.2 | SSW | 0.0 | 385.4 | |||||||||
| 16:10 | 28.2 | 28.5 | 60.3 | 1019.2 | 21.7 | S | 35.3 | S | 0.0 | 368.1 | |||||||||
| 16:15 | 28.2 | 28.4 | 60.4 | 1019.2 | 22.1 | SSW | 39.9 | S | 0.0 | 353.0 | |||||||||
| 16:20 | 27.8 | 28.3 | 61.2 | 1019.2 | 25.6 | S | 44.1 | SSW | 0.0 | 338.5 | |||||||||
| 16:25 | 27.7 | 28.1 | 61.6 | 1019.1 | 25.0 | S | 42.0 | S | 0.0 | 325.3 | |||||||||
| 16:30 | 27.5 | 27.9 | 61.9 | 1019.1 | 21.1 | S | 39.5 | S | 0.0 | 311.6 | |||||||||
| 16:35 | 27.3 | 27.8 | 62.6 | 1019.1 | 23.4 | SSW | 38.1 | SSW | 0.0 | 296.4 | |||||||||
| 16:40 | 27.3 | 27.7 | 62.8 | 1019.1 | 17.6 | S | 35.6 | S | 0.0 | 275.6 | |||||||||
| 16:45 | 27.1 | 27.6 | 63.2 | 1019.2 | 23.6 | S | 44.1 | S | 0.0 | 208.5 | |||||||||
| 16:50 | 27.1 | 27.5 | 63.4 | 1019.2 | 12.4 | S | 31.4 | S | 0.0 | 72.7 | |||||||||
| 16:55 | 27.1 | 27.4 | 63.3 | 1019.4 | 16.1 | S | 29.3 | SE | 0.0 | 61.8 | |||||||||
| 17:00 | 26.9 | 27.3 | 63.5 | 1019.4 | 13.9 | SSE | 36.3 | SSE | 0.0 | 57.4 | |||||||||
| 17:05 | 26.9 | 27.2 | 63.4 | 1019.6 | 15.9 | S | 27.9 | SSW | 0.0 | 55.9 | |||||||||
| 17:10 | 26.9 | 27.2 | 63.8 | 1019.6 | 16.3 | SSW | 26.1 | SSW | 0.0 | 56.0 | |||||||||
| 17:15 | 26.8 | 27.2 | 63.7 | 1019.6 | 17.4 | SSW | 34.2 | S | 0.0 | 53.6 | |||||||||
| 17:20 | 26.5 | 27.1 | 64.3 | 1019.6 | 19.8 | SSW | 32.5 | S | 0.0 | 56.0 | |||||||||
| 17:25 | 26.4 | 27.0 | 64.1 | 1019.6 | 18.6 | SSW | 28.9 | S | 0.0 | 58.5 | |||||||||
| 17:30 | 26.3 | 26.9 | 64.2 | 1019.6 | 15.5 | SSW | 27.5 | SW | 0.0 | 65.0 | |||||||||
| 17:35 | 26.4 | 26.9 | 63.2 | 1019.5 | 13.8 | S | 23.6 | S | 0.0 | 70.4 | |||||||||
| 17:40 | 26.3 | 26.9 | 63.0 | 1019.5 | 10.9 | S | 21.9 | SSE | 0.0 | 76.3 | |||||||||
| 17:45 | 26.3 | 26.9 | 62.7 | 1019.7 | 11.8 | S | 24.0 | SW | 0.0 | 70.8 | |||||||||
| 17:50 | 26.0 | 26.9 | 63.0 | 1019.7 | 15.5 | S | 24.3 | S | 0.0 | 55.7 | |||||||||
| 17:55 | 25.9 | 26.7 | 63.4 | 1019.7 | 11.2 | S | 18.7 | S | 0.0 | 35.3 | |||||||||
| 18:00 | 25.7 | 26.4 | 63.3 | 1019.7 | 15.0 | SSW | 27.2 | SSW | 0.0 | 26.3 | |||||||||
| 18:05 | 25.4 | 26.0 | 63.9 | 1019.8 | 13.5 | S | 21.9 | SSW | 0.0 | 21.5 | |||||||||
| 18:10 | 25.3 | 25.7 | 63.8 | 1019.8 | 8.4 | SSW | 13.8 | S | 0.0 | 20.4 | |||||||||
| 18:15 | 25.3 | 25.5 | 63.4 | 1020.0 | 8.0 | SSW | 13.8 | SSE | 0.0 | 13.6 | |||||||||
| 18:20 | 25.2 | 25.5 | 63.1 | 1020.0 | 9.4 | S | 18.4 | S | 0.0 | 6.5 | |||||||||
| 18:25 | 25.1 | 25.4 | 62.9 | 1020.1 | 8.4 | SSW | 14.8 | SW | 0.0 | 3.3 | |||||||||
| 18:30 | 25.0 | 25.3 | 62.6 | 1020.1 | 6.8 | SSW | 13.8 | WSW | 0.0 | 1.6 | |||||||||
| 18:35 | 24.9 | 25.2 | 62.7 | 1020.1 | 9.3 | SSW | 18.0 | SSW | 0.0 | 0.9 | |||||||||
| 18:40 | 24.8 | 25.1 | 63.7 | 1020.1 | 8.6 | S | 15.2 | SSW | 0.0 | 0.5 | |||||||||
| 18:45 | 24.7 | 25.0 | 64.4 | 1020.2 | 9.8 | S | 19.4 | S | 0.0 | 0.2 | |||||||||
| 18:50 | 24.6 | 24.9 | 65.0 | 1020.2 | 9.6 | S | 17.6 | SSW | 0.0 | 0.1 | |||||||||
| 18:55 | 24.4 | 24.7 | 64.9 | 1020.3 | 9.9 | S | 16.6 | SSE | 0.0 | 0.1 | |||||||||
| 19:00 | 24.3 | 24.5 | 65.0 | 1020.3 | 9.3 | SSW | 15.2 | S | 0.0 | 0.1 | |||||||||
| 19:05 | 24.2 | 24.4 | 65.0 | 1020.5 | 9.6 | SSW | 15.9 | S | 0.0 | 0.1 | |||||||||
| 19:10 | 24.1 | 24.3 | 65.2 | 1020.5 | 11.5 | SSW | 15.5 | SSW | 0.0 | 0.1 | |||||||||
| 19:15 | 24.0 | 24.1 | 65.8 | 1020.6 | 9.5 | S | 15.9 | SSW | 0.0 | 0.1 | |||||||||
| 19:20 | 23.9 | 24.0 | 66.1 | 1020.6 | 8.1 | S | 15.2 | SSW | 0.0 | 0.1 | |||||||||
| 19:25 | 23.8 | 23.9 | 66.3 | 1020.7 | 6.5 | S | 13.4 | S | 0.0 | 0.1 | |||||||||
| Máxima | 32.3 | 37.9 | 91.1 | 1021.0 | 25.6 | S | 44.1 | S | 0.0 | 790.0 | |||||||||
| Mínima | 12.5 | 12.6 | 31.7 | 1019.0 | |||||||||||||||
| Total | 0.0 | ||||||||||||||||||